Regional Weather Roundup
Issued by NWS Goodland, KS

Home | Current Version | Previous Version | Graphics & Text | Print | Product List | Glossary On
Versions: 1 2 3 4 5 6 7 8 9 10 11 12 13 14 15 16 17 18 19 20 21 22 23 24 25 26 27 28 29 30 31 32 33 34 35 36 37 38 39 40 41 42 43 44 45 46 47 48 49 50
702
ASUS43 KGLD 200908
RWRGLD

GOODLAND FORECAST AREA HOURLY WEATHER ROUNDUP
NATIONAL WEATHER SERVICE GOODLAND KS
200 AM MST SAT JAN 20 2018

...OFFICIAL OBSERVATIONS...

CITY           SKY/WX    TMP DP  RH WIND       PRES   REMARKS
GOODLAND KS    MOCLDY    28  20  71 NW7       29.74R
HILL CITY KS   CLOUDY    27  20  75 N9        29.72R
IMPERIAL NEB   MOCLDY    30  28  92 NW3       29.75R
MCCOOK NEB     MOCLDY    32  28  85 CALM      29.74R
AKRON CO       MOCLDY    38  20  48 S9        29.73S
BURLINGTON CO  MOCLDY    31  18  58 CALM      29.74R
LIMON CO       PTCLDY    40  15  36 W8        29.74S
$$

...UNOFFICIAL OBSERVATIONS...

CITY           SKY/WX    TMP DP  RH WIND       PRES   REMARKS
COLBY KS       CLEAR     32  28  86 N9        29.74S
NORTON KS      CLEAR     30  25  80 N8        29.73
SHARON SPRINGS   N/A     32  15  49 CALM        N/A
KIT CARSON CO    N/A     30  12  48 CALM        N/A
YUMA CO        FAIR      23  14  68 CALM      29.74S
$$




USA.gov is the U.S. government's official web portal to all federal, state and local government web resources and services.